Flag for U.S.A. Weather past 2 weeks in Wainwright, Alaska, U.S.A.

Now
38 °F

Overcast.


Feels Like: 35 °F
Forecast: 38 / 42 °F
Wind: 3 mph from South

Location: Wainwright Distant Early Warning

Current Time: Aug 31, 2015 at 1:51:58 PM

Latest Report: Aug 31, 2015 at 12:53 PM


Visibility: 9 mi

Pressure: 29.95 "Hg

Humidity: 93%

Dew point: 36 °F

Location of WainwrightLocation

Historic Weather in Wainwright — Graph

°F

Wainwright temperature yesterday

Maximum temperature yesterday: 42 °F (at 4:53 PM)
Minimum temperature yesterday: 29 °F (at 4:53 AM)
Average temperature yesterday: 37 °F

Past Weeks' High & Low Weather Summary

 TemperatureHumidityPressure
High51 °F (Aug 25, 1:53 PM)97% (Aug 22, 6:56 AM)30.15 "Hg (Aug 22, 6:56 AM)
Low28 °F (Aug 20, 4:53 AM)55% (Aug 20, 3:53 PM)29.33 "Hg (Aug 29, 6:53 AM)
Average40 °F82%29.82 "Hg
* Reported Aug 16 11:53 AM — Aug 31 11:53 AM, Wainwright, Weather by CustomWeather, © 2015

Note: Actual official high and low records may vary slightly from our data, if they occured in-between our weather recording intervals... More about our weather records

Advertising

Wainwright weather history for previous 24 hours

 ConditionsComfort  
Time TempWeatherWind HumidityBarometerVisibility
11:53 AM
Mon, Aug 31
37 °FMore clouds than sun.5 mph93%29.93 "Hg7 mi
10:53 AM37 °FOvercast.5 mph93%29.92 "Hg7 mi
9:53 AM37 °FOvercast.No wind86%29.91 "Hg10 mi
8:53 AM37 °FOvercast.3 mph86%29.90 "Hg10 mi
7:53 AM36 °FMostly cloudy.3 mph85%29.89 "Hg10 mi
6:53 AM36 °FOvercast.6 mph85%29.87 "Hg10 mi
5:53 AM37 °FMostly cloudy.8 mph82%29.86 "Hg10 mi
4:53 AM37 °FOvercast.8 mph82%29.84 "Hg10 mi
3:53 AM36 °FOvercast.3 mph89%29.83 "Hg10 mi
2:53 AM36 °FMostly cloudy.No wind92%29.82 "Hg10 mi
1:53 AM36 °FOvercast.5 mph92%29.80 "Hg8 mi
12:53 AM36 °FMostly cloudy.5 mph89%29.79 "Hg10 mi
11:53 PM
Sun, Aug 30
37 °FOvercast.No wind86%29.77 "Hg10 mi
10:53 PM38 °FOvercast.5 mph86%29.76 "Hg10 mi
9:53 PM38 °FOvercast.12 mph86%29.74 "Hg10 mi
8:53 PM41 °FOvercast.9 mph76%29.72 "Hg10 mi
7:53 PM42 °FOvercast.7 mph68%29.70 "Hg10 mi
6:53 PM42 °FOvercast.7 mph76%29.69 "Hg10 mi
5:53 PM42 °FMostly cloudy.10 mph79%29.67 "Hg10 mi
4:53 PM42 °FOvercast.7 mph76%29.66 "Hg10 mi
3:53 PM41 °FOvercast.7 mph76%29.65 "Hg10 mi
2:53 PM41 °FMore clouds than sun.7 mph80%29.64 "Hg10 mi
1:53 PM41 °FMore clouds than sun.5 mph80%29.62 "Hg10 mi
Weather by CustomWeather, © 2015

See weather overviewHow to use our weather pages